Home   Weather   Glasgow   Past weeks

Flag for United Kingdom Past Weather in Glasgow, Scotland, United Kingdom — Yesterday and Last 2 Weeks

Now
50 °F

Passing clouds.


Feels Like: 45 °F
Forecast: 46 / 49 °F
Wind: 15 mph from Southwest

Location: Glasgow Airport

Current Time: Dec 10, 2016 at 1:29:55 am

Latest Report: Dec 10, 2016 at 12:50 am


Visibility: N/A

Pressure: 29.92 "Hg

Humidity: 88%

Dew Point: 46 °F

Location of GlasgowLocation

Past Weather in Glasgow — Graph

°F

Glasgow Temperature Yesterday

Maximum temperature yesterday: 55 °F (at 8:50 am)
Minimum temperature yesterday: 46 °F (at 12:20 am)
Average temperature yesterday: 52 °F

High & Low Weather Summary for the Past Weeks

 TemperatureHumidityPressure
High57 °F (Dec 7, 7:50 am)100% (Nov 25, 1:20 am)30.54 "Hg (Nov 25, 1:20 am)
Low18 °F (Nov 25, 1:50 am)61% (Nov 28, 5:20 pm)29.83 "Hg (Dec 7, 12:50 pm)
Average41 °F89%30.28 "Hg
* Reported Nov 25 12:20 am — Dec 10 12:20 am, Glasgow, Weather by CustomWeather, © 2016

Note: Actual official high and low records may vary slightly from our data, if they occured in-between our weather recording intervals... More about our weather records

Advertising

Glasgow Weather History for the Previous 24 Hours

Scroll right to see more
 ConditionsComfort  
Time TempWeatherWind HumidityBarometerVisibility
12:20 am
Sat, Dec 10
50 °FCool.12 mph88%29.92 "HgN/A
11:50 pm
Fri, Dec 9
50 °FPassing clouds.14 mph94%29.92 "Hg6 mi
11:20 pm52 °FPassing clouds.15 mph88%29.92 "HgN/A
10:50 pm52 °FLight rain. Mostly cloudy.17 mph88%29.92 "HgN/A
10:20 pm52 °FPassing clouds.14 mph88%29.92 "HgN/A
9:50 pm52 °FPassing clouds.15 mph88%29.92 "Hg4 mi
9:20 pm52 °FPassing clouds.14 mph88%29.92 "HgN/A
8:50 pm52 °FPassing clouds.10 mph88%29.92 "HgN/A
8:20 pm52 °FMostly cloudy.9 mph88%29.92 "Hg6 mi
7:50 pm52 °FPassing clouds.10 mph88%29.92 "HgN/A
7:20 pm54 °FOvercast.14 mph88%29.92 "HgN/A
6:50 pm54 °FPassing clouds.13 mph88%29.92 "HgN/A
6:20 pm54 °FLight rain. Passing clouds.14 mph88%29.89 "HgN/A
5:50 pm54 °FLight rain. Passing clouds.20 mph88%29.89 "Hg4 mi
5:20 pm55 °FPassing clouds.15 mph82%29.89 "HgN/A
4:50 pm55 °FPassing clouds.14 mph82%29.89 "HgN/A
4:20 pm55 °FPassing clouds.14 mph82%29.89 "HgN/A
3:50 pm55 °FPassing clouds.14 mph82%29.89 "HgN/A
3:20 pm55 °FScattered clouds.14 mph82%29.92 "HgN/A
2:50 pm55 °FPartly sunny.14 mph82%29.92 "HgN/A
2:20 pm54 °FPartly sunny.10 mph88%29.92 "HgN/A
1:50 pm55 °FScattered clouds.13 mph82%29.92 "HgN/A
1:20 pm55 °FLight rain. Partly sunny.13 mph88%29.92 "HgN/A
12:50 pm55 °FScattered clouds.22 mph88%29.95 "HgN/A
12:20 pm55 °FPartly sunny.10 mph88%29.92 "HgN/A
11:50 am55 °FOvercast.5 mph88%29.92 "HgN/A
11:20 am55 °FMostly cloudy.7 mph88%29.95 "HgN/A
10:50 am55 °FPartly sunny.15 mph88%29.95 "HgN/A
10:20 am55 °FPartly sunny.16 mph88%29.95 "HgN/A
9:50 am55 °FMostly cloudy.15 mph88%29.92 "HgN/A
9:20 am55 °FMostly cloudy.18 mph88%29.92 "HgN/A
8:50 am55 °FMostly cloudy.14 mph94%29.95 "HgN/A
8:20 am54 °FLow clouds.3 mph94%29.92 "Hg4 mi
7:50 am54 °FLow clouds.10 mph94%29.92 "Hg5 mi
7:20 am54 °FDrizzle. Low clouds.9 mph94%29.92 "Hg2 mi
6:50 am52 °FLight rain. Low clouds.5 mph94%29.92 "HgN/A
6:20 am50 °FOvercast.6 mph94%29.95 "HgN/A
5:50 am48 °FLight rain. Overcast.6 mph100%29.95 "HgN/A
5:20 am48 °FLight rain. Overcast.5 mph94%29.95 "Hg4 mi
4:20 am48 °FLight rain. Overcast.5 mph94%29.98 "Hg4 mi
3:50 am46 °FOvercast.7 mph100%30.01 "HgN/A
3:20 am46 °FOvercast.7 mph93%30.01 "Hg5 mi
2:50 am46 °FLow clouds.6 mph93%30.04 "Hg6 mi
2:20 am46 °FLow clouds.6 mph93%30.07 "Hg6 mi
1:50 am46 °FLow clouds.7 mph93%30.07 "Hg2 mi
1:20 am46 °FOvercast.6 mph93%30.07 "Hg3 mi
Weather by CustomWeather, © 2016

See weather overviewHow to use our weather pages